Regional Weather Roundup
Issued by NWS

Home | Current Version | Previous Version | Graphics & Text | Print | Product List | Glossary On
Versions: 1 2 3 4 5 6 7 8 9 10 11 12 13 14 15 16 17 18 19 20 21 22 23 24 25 26 27 28 29 30 31 32 33 34 35 36 37 38 39 40 41 42 43 44 45 46 47 48 49 50
000
ASUS43 KMKX 290600
RWRWI

WISCONSIN REGIONAL WEATHER ROUNDUP
NATIONAL WEATHER SERVICE MILWAUKEE/SULLIVAN WI
100 AM CDT SUN MAR 29 2015

NOTE: "FAIR" INDICATES FEW OR NO CLOUDS BELOW 12,000 FEET WITH NO
SIGNIFICANT WEATHER AND/OR OBSTRUCTIONS TO VISIBILITY.

WIZ001-002-006>008-014>016-023>028-290700-
NORTHWEST WISCONSIN

CITY           SKY/WX    TMP DP  RH WIND       PRES   REMARKS
SUPERIOR ARPT  MOCLDY    35  19  52 SW12G18   29.85F WCI  26
ASHLAND        MOCLDY    35  14  42 S17G24    29.88F WCI  25
6HR MIN TEMP:  34; 6HR MAX TEMP:  40;

HAYWARD        MOCLDY    35  14  42 S20G31    29.90F WCI  24
6HR MIN TEMP:  33; 6HR MAX TEMP:  39;

SIREN          PTCLDY    35  18  49 S13G22    29.89F WCI  26
CUMBERLAND     MOCLDY    32  18  55 S15G21    29.92F WCI  22
RICE LAKE      MOCLDY    33  16  49 S13       29.94F WCI  24
6HR MIN TEMP:  32; 6HR MAX TEMP:  38;

CHETEK         MOCLDY    33  16  49 SE10G16   29.96F WCI  25
LADYSMITH      CLOUDY    33  16  48 S10G17    29.97F WCI  25
6HR MIN TEMP:  33; 6HR MAX TEMP:  39;

EAU CLAIRE     NOT AVBL
MENOMONIE      MOCLDY    36  15  41 S15       29.96F WCI  26
6HR MIN TEMP:  31; 6HR MAX TEMP:  38;

NEW RICHMOND   MOCLDY    34  18  52 S16       29.92F WCI  24
OSCEOLA        PTCLDY    36  19  51 S14       29.94F WCI  27
$$

WIZ003>005-009-010-017-018-290700-
NORTH CENTRAL WISCONSIN

CITY           SKY/WX    TMP DP  RH WIND       PRES   REMARKS
MANITOWISH WTR FAIR      30  12  46 S12G17    29.94F WCI  20
ARBOR VITAE    MOCLDY    32  15  49 S13G18    29.96F WCI  22
WOODRUFF       MOCLDY    32  15  49 S13G18    29.96F WCI  22
RHINELANDER    MOCLDY    30  13  49 S12       29.99F WCI  20
6HR MIN TEMP:  30; 6HR MAX TEMP:  35;

EAGLE RIVER    PTCLDY    30  10  42 S10G16    29.97F WCI  21
LAND O LAKES   PTCLDY    31  11  43 S8        29.96F WCI  23
PHILLIPS       PTCLDY    31  14  48 S13       29.94F WCI  21
6HR MIN TEMP:  31; 6HR MAX TEMP:  37;

TOMAHAWK       MOCLDY    29  14  52 CALM      30.01F
MEDFORD        MOCLDY    31  17  57 S13       30.01F WCI  21
MERRILL        MOCLDY    31  15  51 S8        30.03F WCI  24
$$

WIZ029-030-035-036-043>047-290700-
CENTRAL WISCONSIN

CITY           SKY/WX    TMP DP  RH WIND       PRES   REMARKS
WAUSAU         MOCLDY    31  15  52 S12       30.03F WCI  22
6HR MIN TEMP:  31; 6HR MAX TEMP:  37;

MOSINEE        MOCLDY    30  18  59 S13       30.06F WCI  20
MARSHFIELD     MOCLDY    32  14  47 S12       30.04F WCI  23
6HR MIN TEMP:  30; 6HR MAX TEMP:  37;

STEVENS POINT  MOCLDY    29  14  53 S10       30.08F WCI  20
WAUPACA        PTCLDY    32  16  50 S9        30.12F WCI  24
6HR MIN TEMP:  29; 6HR MAX TEMP:  39;

WAUTOMA        NOT AVBL
WISC RAPIDS    MOCLDY    31  11  43 S10       30.08F WCI  22
6HR MIN TEMP:  30; 6HR MAX TEMP:  38;

CAMP DOUGLAS   CLOUDY    32  14  46 S7        30.07F WCI  26
6HR MIN TEMP:  27; 6HR MAX TEMP:  37;

$$

WIZ011>013-019>022-031-037>040-048>050-290700-
NORTHEAST WISCONSIN

CITY           SKY/WX    TMP DP  RH WIND       PRES   REMARKS
ANTIGO         PTCLDY    29  16  58 S15       30.04F WCI  18
SHAWANO        PTCLDY    32  16  51 SW5       30.12F WCI  27
OCONTO         FAIR      29  20  69 S6        30.13F WCI  22
STURGEON BAY   CLEAR     27  18  69 S13       30.15F WCI  16
6HR MIN TEMP:  27; 6HR MAX TEMP:  28;

GREEN BAY      PTCLDY    28  20  71 S9        30.14F WCI  19
6HR MIN TEMP:  28; 6HR MAX TEMP:  36;

MANITOWOC      NOT AVBL
APPLETON       PTCLDY    30  16  55 S9        30.14F WCI  22
CLINTONVILLE   PTCLDY    32  16  51 S9        30.11F WCI  24
OSHKOSH        CLEAR     24  18  77 S9        30.15F WCI  14
6HR MIN TEMP:  24; 6HR MAX TEMP:  36;

$$

WIZ032>034-041-042-053>061-290700-
SOUTHWEST WISCONSIN

CITY           SKY/WX    TMP DP  RH WIND       PRES   REMARKS
LA CROSSE      CLOUDY    37  16  42 S16G24    30.04F WCI  28
6HR MIN TEMP:  34; 6HR MAX TEMP:  40;

SPARTA         CLOUDY    35  12  38 S16       30.08F WCI  25
VIROQUA        CLOUDY    32  16  52 S14       30.07F WCI  22
BOSCOBEL       MOCLDY    34  14  43 S8        30.12F WCI  27
6HR MIN TEMP:  34; 6HR MAX TEMP:  40;

PRAIRIE DU CHI MOCLDY    35  14  42 SE7G16    30.12F WCI  29
PLATTEVILLE    PTCLDY    30  18  60 SE9       30.14F WCI  22
$$

WIZ056-057-062-063-064-067-068-290700-
SOUTH CENTRAL WISCONSIN

CITY           SKY/WX    TMP DP  RH WIND       PRES   REMARKS
REEDSBURG      PTCLDY    31  15  51 S10G16    30.12F WCI  23
BARABOO/DELLS  PTCLDY    31  14  50 S13       30.12F WCI  21
LONE ROCK      NOT AVBL
MINERAL POINT  MOCLDY    30  18  59 S9        30.13F WCI  22
MADISON        PTCLDY    32  15  49 S10       30.16F WCI  24
6HR MIN TEMP:  31; 6HR MAX TEMP:  36;

MIDDLETON      PTCLDY    32  14  47 S7        30.17S WCI  26
WATERTOWN      PTCLDY    26  16  67 S7        30.18F WCI  18
MONROE         PTCLDY    30  19  64 S13       30.16F WCI  20
JANESVILLE     PTCLDY    32  16  51 S8        30.19F WCI  25
$$

WIZ051-052-058>065-066-070>072-290700-
SOUTHEAST WISCONSIN

CITY           SKY/WX    TMP DP  RH WIND       PRES   REMARKS
MILWAUKEE      PTCLDY    25  12  58 S8        30.22F WCI  16
6HR MIN TEMP:  25; 6HR MAX TEMP:  30;

WAUKESHA       CLEAR     23  12  63 S6        30.21F WCI  16
MILWAUKEE/TIMM CLEAR     27  12  54 S7        30.23F WCI  19
RACINE         CLEAR     27  12  53 S7        30.24F WCI  19
6HR MIN TEMP:  25; 6HR MAX TEMP:  29;

BURLINGTON     CLEAR     24  12  60 S7        30.22F WCI  16
KENOSHA        CLEAR     25  12  58 S8        30.23F WCI  16
6HR MIN TEMP:  23; 6HR MAX TEMP:  29;

FOND DU LAC    CLEAR     27  17  66 S9        30.16F WCI  18
6HR MIN TEMP:  23; 6HR MAX TEMP:  36;

SHEBOYGAN      PTCLDY    22  15  75 MISG      30.18F
6HR MIN TEMP:  22; 6HR MAX TEMP:  29;

WEST BEND      PTCLDY    27  12  54 S7        30.19F WCI  19
JUNEAU         PTCLDY    26  17  69 SE9       30.18F WCI  16
$$

LSZ147-162-290700-
LAKE SUPERIOR

STATION/POSITION TIME  TEMP    WIND        PRES    WAVE
                       AIR SEA DIR/SP/G            HT/PER
                 (UTC) (F)     (DEG/KT/KT) (MB)    (FT/S)
DEVILS ISLAND    0500   36     190/ 10/ 15 1013.1F
PORT WING        0500   37     190/ 14/ 19 1012.2F
SAXON HARBOR     0500   36     180/ 11/ 22 1013.2
$$

LMZ867-665-643>646-290700-
LAKE MICHIGAN

STATION/POSITION TIME  TEMP    WIND        PRES    WAVE
                       AIR SEA DIR/SP/G            HT/PER
                 (UTC) (F)     (DEG/KT/KT) (MB)    (FT/S)
NORTHPORT PIER   0500   30     180/  7/ 11 1020.7F
SISTER BAY       0517   29     190/ 16/ 19   N/A
KEWAUNEE LAKESHO 0500   28     200/ 12/ 15 1021.4F
SHEBOYGAN LAKESH 0500   29     200/ 15/ 16 1024.3F
PORT WASHINGTON  0500   28     200/  5/  9 1024.4
MILWAUKEE LAKESH 0500   29     200/ 10/ 11   N/A
KENOSHA   LAKESH 0500   29     210/  7/ 10 1024.4S
$$

TC  - TEMPERATURE IN CELSIUS
VSB - VISIBILITY IN STATUTE MILES
WCI - WIND CHILL INDEX
HX  - HEAT INDEX




USA.gov is the U.S. government's official web portal to all federal, state and local government web resources and services.